Tracking 20037 objects as of 17-Nov-2019
Live streaming from Space Station
objects crossing your sky now

CLUSTER II-FM7

Track CLUSTER II-FM7 now!
CLUSTER II-FM7 is classified as:


NORAD ID: 26411
Int'l Code: 2000-041B
Perigee: 27,444.0 km
Apogee: 105,364.1 km
Inclination: 131.1 °
Period: 3,256.4 minutes
Semi major axis: 72775 km
RCS: 1.5887 m2 (large)
Launch date: July 16, 2000
Source: European Space Agency (ESA)
Launch site: TYURATAM MISSILE AND SPACE COMPLEX (TTMTR)
aabbcc
Your satellite tracking list
Your tracking list is empty




NASA's NSSDC Master Catalog

Two Line Element Set (TLE):
1 26411U 00041B   19321.68567543  .00000000  00000-0  00000+0 0  9998
2 26411 131.0954 341.1924 5353486 184.1292   0.5060  0.44221074 20393
Source of the keplerian elements: AFSPC